Location: Asheville, NC
(35.6000°N, 82.5500°W)
Time: 03:16:43
(UTC-04:00)

HO-68 - Pass Details

Date: 17 March 2018
Orbit: 1192 x 1205 km, 100.1° (Epoch: 19 June)

Event Time Altitude Azimuth Distance (km) Brightness Sun altitude
Rises 20:51:00 0° 200° (SSW) 4,076 ? -15.3°
Reaches altitude 10° 20:54:11 10° 213° (SSW) 3,117 ? -15.9°
Maximum altitude 20:59:45 24° 265° (W) 2,230 ? -17.0°
Drops below altitude 10° 21:05:23 10° 317° (NW) 3,137 ? -18.2°
Sets 21:08:38 0° 331° (NNW) 4,108 ? -18.8°
